Simultaneous Nadir Overpasses (SNOs) Predictions

Prediction of SNOs between GOES-15 and METOP-A Satellite Orbit:

Table of predicted SNOs for the next 14.0 days since TLE Epoch: 8/22/2020
Index Date Time (GOES-15) GOES-15 Lat,Lon METOP-A Lat,Lon Distance(km) Time Diff (sec)
1 08/23/2020 05:21:45 0.02,-127.78 -0.74,-131.26 396.53 80
2 08/24/2020 04:58:25 0.03,-127.74 0.34,-126.28 166.06 80
3 08/25/2020 17:17:18 -0.02,-127.67 0.67,-130.87 364.23 80
4 08/26/2020 16:59:18 -0.03,-127.63 -0.40,-125.89 198.32 80
5 08/28/2020 05:18:19 0.02,-127.57 -0.63,-130.52 336.51 80
6 08/29/2020 04:55:00 0.03,-127.52 0.45,-125.54 225.40 80
7 08/30/2020 17:13:52 -0.02,-127.45 0.56,-130.14 306.02 80
8 08/31/2020 16:55:53 -0.03,-127.41 -0.51,-125.15 256.16 80
9 09/02/2020 05:14:54 0.02,-127.34 -0.51,-129.79 278.57 80
10 09/03/2020 04:51:35 0.03,-127.30 0.57,-124.81 283.21 80
11 09/04/2020 17:10:27 -0.03,-127.22 0.45,-129.40 248.75 80
